Location: Krakow
(50.0830°N, 19.9170°E)
Time: 06:34:39
(UTC+02:00)

A-11 Canister half - Pass Details

Date: 17 March 2026
Orbit: 1523 x 1684 km, 47.3° (Epoch: 18 April)

Event Time Altitude Azimuth Distance (km) Brightness Sun altitude
Rises 10:20:39 0° 249° (WSW) 4,875 11.6 35.3°
Reaches altitude 10° 10:23:50 10° 248° (WSW) 3,870 11.2 35.5°
Maximum altitude 10:33:36 71° 167° (SSE) 1,671 10.3 36.2°
Drops below altitude 10° 10:43:03 10° 86° (E) 3,748 11.3 36.8°
Sets 10:46:05 0° 84° (E) 4,715 11.7 36.9°
